SCP
-0 0 0 -0 0 0 0 0 0 0 0 0 0 0 0 0 0 0 0 0 0 0 0 0 0 0 0 0 0 0 0 0
0 0 0 0 0 0 0 0 0 0 0 0 0 0 0 0 0 0 0 0 0 0 0 0 0 0 0 0 0 0 0 0
0 0 -0 0 0 0 0 0 0 0 0 0 0 0 0 0 0 0 0 0 0 0 0 0 0 0 0 0 0 0 0 0
0 0 0 0 0 0 0 0 0 0 0 0 0 0 0 0 0 0 0 0 0 0 0 0 0 0 0 0 0 0 0 0
0 0 0 0 0 0 0 0 0 0 0 0 0 0 0 0 0 0 0 0 0 0 0 0 0 0 0 0 0 0 0 0
0 0 0 0 0 0 0 0 0 0 0 0 0 0 0 0 0 0 0 0 0 0 0 0 0 0 0 0 0 0 0 0
0 0 0 0 0 0 0 0 0 0 0 0 0 0 0 0 0 0 0 0 0 0 0 0 0 0 0 0 0 0 0 0
0 0 0 0 0 0 0 0 0 0 0 0 0 0 0 0 0 0 0 0 0 0 0 0 0 0 0 0 0 0 0 0
0 0 0 0 0 0 0 0 0 0 0 0 0 0 0 0 0 0 0 0 0 0 0 0 0 0 0 0 0 0 0 0
0 0 0 0 0 0 0 0 0 0 0 0 0 0 0 0 0 0 0 0 0 0 0 0 0 0 0 0 0 0 0 0
0 0 0 0 0 0 0 0 0 0 0 0 0 0 0 0 0 0 0 0 0 0 0 0 0 0 0 0 0 0 0 0
0 0 0 0 0 0 0 0 0 0 0 0 0 0 0 0 0 0 0 0 0 0 0 0 0 0 0 0 0 0 0 0
0 0 0 0 0 0 0 0 0 0 0 0 0 0 0 0 0 0 0 0 0 0 0 0 0 0 0 0 0 0 0 0
0 0 0 0 0 0 0 0 0 0 0 0 0 0 0 0 0 0 0 0 0 0 -0 -0 0 0 0 0 0 0 0 0
0 0 0 0 0 0 0 0 0 0 0 0 0 0 0 0 0 0 0 0 0 0 0 -0 -0 0 -0 -0 -0 0 -0 0
0 0 0 0 0 0 0 0 0 0 0 0 0 0 0 0 0 0 0 0 0 0 0 -0 0 0 0 -0 -0 0 0 0
0 0 0 0 0 0 0 0 0 0 0 0 0 0 0 0 0 0 0 0 0 0 0 0 -0 -0 -0 0 0 0 0 0
0 0 0 0 0 0 0 0 0 0 0 0 0 0 0 0 0 0 0 0 0 0 0 0 0 0 -0 -0 0 0 0 0
0 0 0 0 0 0 0 0 0 0 0 0 0 0 0 0 0 0 0 0 0 0 0 0 0 0 0 0 0 0 0 0
0 0 0 0 0 0 0 0 0 0 0 0 0 0 0 0 0 0 0 0 0 0 0 0 0 0 0 0 0 0 0 0
Wind_Speed_500mb
36 29 23 21 19 20 26 27 27 27 30 17 8 7 14 29 29 24 15 17 13 9 21 15 13 16 22 23 16 19 18 19
28 25 21 17 13 11 15 18 21 19 19 15 12 16 21 30 28 24 22 23 19 17 14 13 20 26 28 29 29 33 30 25
31 37 24 18 12 4 7 12 13 9 8 8 9 12 13 19 27 25 22 24 23 18 15 15 24 29 30 31 32 31 32 32
46 36 30 18 11 5 12 9 8 7 5 6 8 8 9 12 22 27 26 29 24 22 16 18 27 30 31 29 28 34 36 35
41 33 24 16 12 18 12 18 20 18 18 19 17 23 20 23 29 34 36 38 38 26 18 19 29 28 21 20 30 36 39 37
35 25 23 22 29 30 16 20 22 23 21 20 24 25 25 25 33 38 40 44 38 36 19 21 29 26 16 26 35 40 38 28
31 27 28 21 21 27 22 23 24 23 20 14 6 7 11 22 31 39 42 40 37 30 19 24 23 21 18 28 34 37 32 30
34 33 25 21 22 27 26 24 22 20 18 17 11 5 14 22 29 32 38 40 42 36 30 26 23 23 27 31 38 28 24 35
36 23 22 24 25 26 26 21 20 18 21 24 20 19 19 10 16 23 21 25 30 41 34 28 20 17 22 24 22 16 29 38
39 27 20 20 22 22 20 16 17 19 24 24 15 15 9 4 12 17 24 32 32 34 24 20 17 17 19 22 25 21 23 32
45 38 26 18 17 17 14 11 15 19 24 21 10 6 14 18 21 28 32 29 24 21 17 19 23 21 26 28 24 21 21 21
53 47 30 24 20 16 11 9 14 19 24 26 18 11 10 16 22 22 19 23 25 19 18 22 24 30 30 33 34 26 21 27
64 49 35 29 18 16 8 7 14 19 25 27 19 14 17 22 30 32 34 26 27 26 26 33 34 31 29 32 34 33 39 22
61 50 46 34 21 11 4 4 11 15 22 25 20 22 27 27 36 40 34 34 31 32 37 30 24 24 30 25 28 28 34 37
65 61 53 40 25 16 10 4 4 12 19 19 15 19 22 35 40 41 44 41 40 39 32 30 33 24 31 23 25 31 33 40
70 67 53 36 35 29 20 9 3 9 17 13 19 19 28 34 30 31 29 26 28 27 28 28 33 29 24 35 40 36 27 33
76 64 45 47 53 33 22 11 5 6 13 12 24 30 31 29 24 19 12 21 20 18 20 21 24 26 21 22 25 28 29 28
73 61 53 58 47 34 25 15 9 8 11 11 22 26 24 22 13 24 29 22 13 14 17 21 18 18 19 20 20 23 24 24
74 61 64 64 49 36 24 18 16 12 4 12 23 17 9 16 22 23 19 23 27 20 19 18 10 11 10 10 12 24 22 21
79 74 72 60 45 30 20 22 23 14 4 19 27 13 15 16 17 15 19 16 26 13 16 12 17 25 17 14 6 20 24 29
Wind_Direction_500mb
121 109 117 130 125 149 151 140 131 129 113 118 121 82 318 309 313 339 337 317 324 323 267 258 265 266 275 281 283 285 276 281
104 103 123 127 138 136 151 185 178 180 185 191 257 277 298 304 327 338 324 315 317 322 309 275 264 269 270 282 283 271 273 277
110 118 139 148 134 195 160 179 182 192 237 256 289 320 334 319 322 332 340 340 337 327 298 287 279 278 287 288 289 284 281 279
148 157 158 175 181 90 64 84 96 74 63 38 43 10 346 339 319 326 340 331 326 326 313 283 282 290 304 298 296 289 290 287
148 158 173 187 184 131 83 99 100 93 82 67 45 27 10 0 329 327 336 328 325 323 317 287 294 311 308 293 291 288 296 296
133 150 172 171 158 152 141 115 103 94 78 52 37 20 10 347 331 329 330 334 331 333 333 310 314 325 331 320 304 306 314 325
149 151 160 168 156 159 136 119 108 94 78 75 61 32 338 326 322 324 326 334 338 336 329 328 333 329 326 327 323 332 342 343
159 167 171 168 148 136 129 115 95 78 57 40 23 357 20 333 337 333 330 330 343 341 340 331 334 337 350 347 340 341 16 359
163 164 160 152 142 134 125 109 82 57 35 26 35 55 37 346 316 319 314 331 341 339 346 1 355 9 355 351 5 12 26 8
152 156 156 152 147 141 131 102 69 40 26 24 43 72 105 312 315 316 320 329 340 352 7 14 27 14 12 21 22 28 27 24
158 159 166 166 160 152 135 99 62 34 22 17 32 200 232 256 294 321 325 350 9 15 13 29 30 26 37 29 19 15 26 40
165 168 173 176 177 175 139 80 42 20 19 7 13 4 347 339 323 337 345 19 35 29 28 34 43 40 42 46 41 31 12 40
170 174 176 178 185 183 154 62 36 11 8 11 23 28 41 35 42 43 50 53 57 50 51 52 55 46 45 41 43 31 49 47
170 174 171 171 179 192 157 29 37 357 4 9 25 49 57 62 67 57 69 69 61 64 55 48 50 48 36 43 49 46 39 43
170 170 166 169 177 167 169 243 26 341 0 9 51 63 81 78 79 73 64 64 62 57 47 45 20 46 46 53 56 51 42 35
172 171 166 170 170 162 183 234 237 331 353 15 73 85 99 85 75 67 57 57 51 46 48 38 38 52 56 40 48 50 43 34
173 168 168 172 175 187 210 221 235 287 349 59 97 94 87 81 73 53 78 76 64 57 49 36 39 42 52 31 25 32 24 24
170 165 168 180 182 186 195 201 218 264 343 90 112 87 78 79 68 64 52 55 68 62 73 53 39 34 32 31 43 20 20 20
169 167 177 179 181 189 197 186 197 231 337 127 110 100 109 88 70 67 46 32 37 65 75 35 25 358 6 10 29 33 17 10
170 172 174 175 182 188 182 163 191 232 309 127 119 118 93 81 69 58 43 27 13 58 48 13 352 10 356 323 13 29 15 5
Wind_Speed_850mb
36 29 23 21 19 20 26 27 27 27 30 17 8 7 14 29 29 24 15 17 13 9 21 15 13 16 22 23 16 19 18 19
28 25 21 17 13 11 15 18 21 19 19 15 12 16 21 30 28 24 22 23 19 17 14 13 20 26 28 29 29 33 30 25
31 37 24 18 12 4 7 12 13 9 8 8 9 12 13 19 27 25 22 24 23 18 15 15 24 29 30 31 32 31 32 32
46 36 30 18 11 5 12 9 8 7 5 6 8 8 9 12 22 27 26 29 24 22 16 18 27 30 31 29 28 34 36 35
41 33 24 16 12 18 12 18 20 18 18 19 17 23 20 23 29 34 36 38 38 26 18 19 29 28 21 20 30 36 39 37
35 25 23 22 29 30 16 20 22 23 21 20 24 25 25 25 33 38 40 44 38 36 19 21 29 26 16 26 35 40 38 28
31 27 28 21 21 27 22 23 24 23 20 14 6 7 11 22 31 39 42 40 37 30 19 24 23 21 18 28 34 37 32 30
34 33 25 21 22 27 26 24 22 20 18 17 11 5 14 22 29 32 38 40 42 36 30 26 23 23 27 31 38 28 24 35
36 23 22 24 25 26 26 21 20 18 21 24 20 19 19 10 16 23 21 25 30 41 34 28 20 17 22 24 22 16 29 38
39 27 20 20 22 22 20 16 17 19 24 24 15 15 9 4 12 17 24 32 32 34 24 20 17 17 19 22 25 21 23 32
45 38 26 18 17 17 14 11 15 19 24 21 10 6 14 18 21 28 32 29 24 21 17 19 23 21 26 28 24 21 21 21
53 47 30 24 20 16 11 9 14 19 24 26 18 11 10 16 22 22 19 23 25 19 18 22 24 30 30 33 34 26 21 27
64 49 35 29 18 16 8 7 14 19 25 27 19 14 17 22 30 32 34 26 27 26 26 33 34 31 29 32 34 33 39 22
61 50 46 34 21 11 4 4 11 15 22 25 20 22 27 27 36 40 34 34 31 32 37 30 24 24 30 25 28 28 34 37
65 61 53 40 25 16 10 4 4 12 19 19 15 19 22 35 40 41 44 41 40 39 32 30 33 24 31 23 25 31 33 40
70 67 53 36 35 29 20 9 3 9 17 13 19 19 28 34 30 31 29 26 28 27 28 28 33 29 24 35 40 36 27 33
76 64 45 47 53 33 22 11 5 6 13 12 24 30 31 29 24 19 12 21 20 18 20 21 24 26 21 22 25 28 29 28
73 61 53 58 47 34 25 15 9 8 11 11 22 26 24 22 13 24 29 22 13 14 17 21 18 18 19 20 20 23 24 24
74 61 64 64 49 36 24 18 16 12 4 12 23 17 9 16 22 23 19 23 27 20 19 18 10 11 10 10 12 24 22 21
79 74 72 60 45 30 20 22 23 14 4 19 27 13 15 16 17 15 19 16 26 13 16 12 17 25 17 14 6 20 24 29
Wind_Direction_850mb
121 109 117 130 125 149 151 140 131 129 113 118 121 82 318 309 313 339 337 317 324 323 267 258 265 266 275 281 283 285 276 281
104 103 123 127 138 136 151 185 178 180 185 191 257 277 298 304 327 338 324 315 317 322 309 275 264 269 270 282 283 271 273 277
110 118 139 148 134 195 160 179 182 192 237 256 289 320 334 319 322 332 340 340 337 327 298 287 279 278 287 288 289 284 281 279
148 157 158 175 181 90 64 84 96 74 63 38 43 10 346 339 319 326 340 331 326 326 313 283 282 290 304 298 296 289 290 287
148 158 173 187 184 131 83 99 100 93 82 67 45 27 10 0 329 327 336 328 325 323 317 287 294 311 308 293 291 288 296 296
133 150 172 171 158 152 141 115 103 94 78 52 37 20 10 347 331 329 330 334 331 333 333 310 314 325 331 320 304 306 314 325
149 151 160 168 156 159 136 119 108 94 78 75 61 32 338 326 322 324 326 334 338 336 329 328 333 329 326 327 323 332 342 343
159 167 171 168 148 136 129 115 95 78 57 40 23 357 20 333 337 333 330 330 343 341 340 331 334 337 350 347 340 341 16 359
163 164 160 152 142 134 125 109 82 57 35 26 35 55 37 346 316 319 314 331 341 339 346 1 355 9 355 351 5 12 26 8
152 156 156 152 147 141 131 102 69 40 26 24 43 72 105 312 315 316 320 329 340 352 7 14 27 14 12 21 22 28 27 24
158 159 166 166 160 152 135 99 62 34 22 17 32 200 232 256 294 321 325 350 9 15 13 29 30 26 37 29 19 15 26 40
165 168 173 176 177 175 139 80 42 20 19 7 13 4 347 339 323 337 345 19 35 29 28 34 43 40 42 46 41 31 12 40
170 174 176 178 185 183 154 62 36 11 8 11 23 28 41 35 42 43 50 53 57 50 51 52 55 46 45 41 43 31 49 47
170 174 171 171 179 192 157 29 37 357 4 9 25 49 57 62 67 57 69 69 61 64 55 48 50 48 36 43 49 46 39 43
170 170 166 169 177 167 169 243 26 341 0 9 51 63 81 78 79 73 64 64 62 57 47 45 20 46 46 53 56 51 42 35
172 171 166 170 170 162 183 234 237 331 353 15 73 85 99 85 75 67 57 57 51 46 48 38 38 52 56 40 48 50 43 34
173 168 168 172 175 187 210 221 235 287 349 59 97 94 87 81 73 53 78 76 64 57 49 36 39 42 52 31 25 32 24 24
170 165 168 180 182 186 195 201 218 264 343 90 112 87 78 79 68 64 52 55 68 62 73 53 39 34 32 31 43 20 20 20
169 167 177 179 181 189 197 186 197 231 337 127 110 100 109 88 70 67 46 32 37 65 75 35 25 358 6 10 29 33 17 10
170 172 174 175 182 188 182 163 191 232 309 127 119 118 93 81 69 58 43 27 13 58 48 13 352 10 356 323 13 29 15 5